Accueil
METAR-TAF:

METAR-TAF

Aéroports :

Ponape, Micronésie

NWS Office

latitude: 06-58N, longitude: 158-13E, altitude: 39 m

Observation

Le bulletin a été fait il y a 48 minutes, à 21:51 UTC
Vent 7 kt de est/nord-est
Température 30°C
Humidité 75%
Pression 1015 hPa
Visibilité: 24.1 km
Nuages épars à une hauteur de 1800 ft
Nuages épars à une hauteur de 13000 ft
Ciel couvert à une hauteur de 30000 ft

METAR: PTTP 232151Z 06007KT 15SM SCT018 SCT130 OVC300 30/25 A2997 RMK SLP149 T03030246

Heure: 09:39 (22:39 UTC)


TAF: absent

Observations et prévisions météorologiques de plus de 4000 aéroports (messages METAR et TAF).

Les stations disponibles sont représentées par des disques jaunes et rouges sur la carte.

Passer la souris dessus pour voir le nom de la station.

Cliquer dessus pour voir les observations et prévisions météorologiques.

Pour changer de carte: cliquez sur les boutons verts avec une croix noire pour zoomer, sur le bouton vert avec un tiret pour effectuer un zoom arrière, ou sur les flèches vertes pour les cartes adjacentes.


METAR-TAF: